Theta_e
323 323 323 322 323 323 323 324 324 324 324 325 325 324 325 326 326 328 328 329 329 328 326 325 323 323 321 320 318 317 315 315 314 314 313 314 313 313 312 308 309 310 311 308 308 309 308 306 307 308 308 307 307 306 304 304 303 304 303 303 302 302 300 298 294 294 297 301 300 299 300 300 298 298 298 298 298 298 303 299 298 297 297 297 298
322 322 323 324 323 324 324 325 324 323 324 325 325 325 326 327 332 329 328 328 328 326 326 326 325 323 321 320 319 317 316 314 314 314 312 312 312 311 312 308 308 309 310 308 308 307 309 307 307 306 305 303 304 303 304 303 301 302 302 302 301 302 301 298 295 295 293 297 299 300 299 300 297 299 298 298 297 299 297 296 297 297 297 297 296
323 323 323 324 324 325 325 324 323 324 324 326 326 325 326 328 328 330 328 328 328 327 326 326 325 324 322 322 319 318 317 315 315 314 313 312 311 311 312 309 308 309 309 308 307 306 306 307 306 308 308 305 305 305 304 303 303 300 300 301 301 303 300 299 298 295 293 295 298 297 298 299 299 298 298 298 298 297 296 296 296 297 298 297 296
323 323 323 324 325 325 325 324 323 323 323 325 327 327 327 328 328 327 326 328 326 328 328 326 325 324 323 322 320 319 318 318 315 314 312 312 311 310 310 310 309 308 308 308 306 306 306 306 305 307 308 305 305 304 305 305 306 304 302 302 304 302 301 301 300 297 296 295 297 297 298 298 299 299 299 298 297 296 297 297 297 296 296 297 296
324 323 323 323 324 324 325 325 324 323 324 325 326 328 328 328 328 326 327 328 326 327 327 327 326 324 324 322 321 320 319 318 316 315 315 314 313 312 310 308 308 308 308 308 309 307 307 306 306 306 307 306 305 305 304 305 304 304 303 303 303 304 303 302 300 300 297 295 297 299 299 299 300 299 298 296 296 296 297 297 297 296 295 296 297
325 324 323 323 323 324 325 325 324 324 325 325 326 326 327 327 327 327 325 325 327 327 326 326 325 324 324 323 322 321 320 319 317 315 314 314 314 313 312 310 309 308 308 308 307 307 307 307 307 307 307 306 306 306 305 304 304 304 304 303 302 303 304 302 301 300 299 297 297 297 299 299 298 299 298 297 296 295 296 296 296 296 295 294 295
325 324 323 323 323 323 324 325 325 326 326 325 327 326 326 327 326 325 325 326 327 326 326 326 327 325 325 324 323 322 321 320 319 317 316 315 314 312 312 311 311 309 308 308 307 307 307 306 307 308 307 306 307 306 306 306 306 305 305 305 304 303 303 302 301 299 299 298 297 298 298 300 298 295 297 297 297 297 295 294 294 295 296 295 294
324 324 324 324 323 324 325 326 326 327 327 326 326 326 326 327 327 327 327 326 325 325 325 325 326 326 325 325 325 324 323 321 320 319 318 317 315 313 312 312 310 310 309 308 308 308 307 307 307 306 306 307 307 307 306 306 306 304 306 306 305 304 303 303 301 299 298 298 296 296 297 297 296 298 298 296 296 295 296 295 292 293 293 295 294
324 324 324 324 325 325 326 326 327 327 326 326 325 325 326 327 328 327 327 327 327 325 326 326 326 326 325 326 325 325 323 322 321 320 318 317 316 314 313 312 311 310 309 308 308 307 307 307 307 306 308 312 312 312 310 311 306 304 305 306 305 304 303 303 302 300 299 298 296 298 296 295 295 295 293 293 293 293 295 295 293 293 293 293 293
324 323 323 324 325 325 326 326 326 326 326 325 325 325 326 327 327 327 326 326 326 327 326 326 326 326 325 325 325 325 324 324 324 318 318 318 317 315 314 313 311 310 310 309 309 308 307 307 307 313 314 314 313 312 309 307 310 308 305 303 303 302 302 301 300 300 298 296 295 295 293 292 293 294 293 294 295 296 295 293 291 292 292 291 292
324 323 323 324 325 325 325 325 325 325 325 325 325 326 326 327 327 326 326 326 326 327 327 326 326 326 325 325 325 326 325 325 317 306 306 311 318 317 315 314 313 312 310 309 308 309 308 307 307 311 313 313 311 307 304 303 302 303 304 306 304 301 299 299 298 298 297 296 296 294 292 292 294 295 293 293 295 295 294 293 292 291 289 288 286
324 324 324 324 325 324 325 325 324 324 325 324 325 325 326 326 327 326 326 327 328 329 328 327 327 327 327 326 326 326 326 322 307 304 304 304 312 317 317 315 315 313 311 310 309 308 308 308 308 308 309 307 306 306 304 302 300 299 299 298 298 300 300 298 297 295 296 295 294 293 293 292 293 294 293 293 294 294 294 292 291 290 288 288 288
324 324 324 324 324 325 324 324 324 324 324 324 325 325 325 326 326 326 326 328 329 328 328 329 328 329 329 327 326 327 326 314 304 304 302 302 303 312 317 317 315 314 312 311 310 309 309 308 308 309 307 314 309 305 304 303 301 300 300 300 300 297 293 293 297 298 297 295 294 293 293 293 292 293 295 295 296 294 293 291 290 290 289 288 288
324 323 324 324 324 325 324 324 323 323 324 324 325 325 325 325 326 327 327 328 328 329 330 330 330 331 331 329 328 327 327 314 303 303 302 301 300 303 315 316 316 315 314 312 311 310 309 309 308 308 309 310 309 306 305 305 303 301 300 299 298 300 300 295 294 295 298 296 295 293 295 295 293 293 296 297 295 293 291 290 291 290 290 289 291
324 324 324 324 324 325 324 324 324 324 324 324 325 324 325 325 327 327 327 327 328 329 329 330 331 331 332 331 329 328 329 310 302 301 301 300 299 301 312 315 316 316 315 314 313 312 311 310 309 308 308 308 309 308 306 305 305 305 302 300 300 299 300 300 298 297 297 297 296 296 296 296 295 295 297 298 295 294 293 291 291 291 292 293 292
324 325 324 325 324 324 324 324 324 324 324 324 324 324 325 326 327 328 327 328 328 330 332 332 332 332 333 332 330 328 329 306 301 301 300 299 298 306 310 312 313 314 314 314 314 313 312 311 309 308 307 307 311 304 307 306 305 304 303 303 302 302 302 306 302 301 301 299 298 297 297 297 297 299 297 294 293 293 294 293 293 292 291 290 289
324 325 325 325 325 324 324 324 324 324 324 324 324 324 324 326 327 329 328 327 328 328 330 332 333 333 333 332 331 329 330 309 299 300 299 298 299 307 308 310 311 312 312 313 313 313 312 311 310 308 308 307 305 298 298 307 305 304 304 303 304 303 303 306 301 298 298 297 296 296 295 295 294 292 292 293 293 294 293 291 290 291 289 287 289
325 325 325 325 326 325 324 324 324 324 324 323 323 324 326 327 328 328 327 327 327 328 330 331 333 333 331 331 331 329 329 318 299 299 298 297 303 308 308 309 309 310 311 311 312 312 312 314 312 309 308 307 301 297 295 302 303 303 302 301 300 300 300 302 303 302 297 296 296 295 294 292 292 292 293 293 293 295 292 289 291 292 290 290 288
326 326 326 326 327 326 325 324 323 324 324 324 325 325 326 327 328 330 329 329 328 329 329 329 331 333 331 330 328 329 329 322 302 299 297 297 301 309 310 309 308 309 310 310 311 311 311 313 312 309 308 307 299 296 294 301 302 301 301 300 299 298 299 301 301 302 299 298 297 296 295 295 296 296 297 296 295 298 295 294 294 293 291 291 291
326 326 327 328 327 327 327 326 325 325 324 325 326 327 329 329 329 328 328 328 327 328 328 328 329 330 329 329 331 329 329 329 314 298 299 297 299 310 312 310 309 309 310 309 309 310 310 311 310 302 299 299 297 293 294 296 301 302 301 299 298 298 302 302 301 301 301 298 297 298 297 298 298 298 298 298 298 300 299 297 297 295 294 291 289
331 330 332 329 328 328 327 327 327 328 327 326 327 327 328 328 329 329 328 328 327 326 327 327 329 330 330 330 330 330 329 328 316 296 298 297 297 304 312 312 312 311 311 309 309 310 310 310 310 304 297 297 296 293 293 294 298 302 301 300 301 304 302 303 303 304 301 300 299 298 297 297 297 297 297 297 297 297 298 298 298 297 294 291 289
329 328 328 327 326 327 328 328 329 329 328 328 328 328 328 329 328 329 328 327 327 328 331 330 329 328 329 330 330 329 329 322 326 299 297 296 296 298 310 313 313 313 312 311 310 310 310 311 311 305 297 296 295 294 293 293 293 299 301 297 296 292 300 301 301 300 299 298 297 296 296 295 294 295 296 295 295 296 297 297 297 296 296 295 292
328 328 327 327 327 327 327 328 328 330 330 329 328 328 330 329 329 329 329 328 328 329 331 330 328 326 326 327 329 329 329 325 315 304 296 296 295 296 298 306 304 312 313 312 311 311 312 312 313 307 296 296 295 294 293 293 294 296 295 294 294 292 294 296 295 296 296 296 296 295 294 293 293 292 293 293 293 294 296 296 296 296 296 297 296
328 327 327 328 327 327 328 330 332 331 330 330 329 329 329 330 331 330 327 327 328 330 330 330 327 325 324 325 327 327 327 327 313 305 300 295 295 295 295 296 298 308 312 314 314 314 313 313 307 296 294 294 294 293 293 293 295 293 293 293 292 293 295 295 294 294 294 294 293 292 291 291 291 291 293 295 294 293 296 297 296 296 295 295 295
328 327 327 327 326 330 332 330 330 330 334 336 331 331 333 326 321 323 327 327 328 328 328 329 327 326 325 324 325 326 326 327 319 305 299 296 294 294 294 294 295 295 301 307 311 307 291 290 291 291 292 292 292 292 292 293 291 292 291 291 296 295 294 294 293 293 292 291 291 291 290 291 291 292 294 296 295 296 296 297 297 296 296 296 295
330 329 329 332 334 330 328 326 328 327 326 328 326 326 325 324 321 321 323 322 323 325 326 324 322 322 323 325 325 324 325 326 318 311 303 299 296 293 293 293 296 296 297 301 297 293 292 290 290 291 292 292 295 295 295 296 292 291 291 293 295 294 294 293 292 292 291 291 291 291 291 291 292 293 296 296 294 293 294 294 294 293 294 294 293
327 330 331 329 327 324 323 323 324 325 326 326 325 325 325 324 325 323 323 323 322 322 322 320 319 320 321 323 322 323 325 325 318 311 309 304 302 299 296 296 295 295 296 298 298 299 300 299 297 294 296 293 294 295 296 294 294 293 292 293 293 293 294 293 293 292 292 292 292 292 292 292 293 293 294 293 293 293 294 294 293 292 293 293 292
332 328 325 326 325 326 324 319 321 324 326 326 326 325 325 325 324 323 322 323 323 321 321 319 320 321 321 321 322 324 323 320 316 315 313 310 309 307 303 302 301 300 299 300 301 303 303 301 299 299 299 298 296 297 297 297 296 295 295 294 294 294 295 297 297 294 294 294 294 293 293 293 292 293 294 293 292 293 294 293 292 292 293 293 291
328 327 328 329 326 325 325 324 326 326 328 323 316 312 314 324 323 314 311 313 317 321 322 320 316 319 317 315 318 320 313 308 305 295 308 299 309 311 308 306 306 304 302 298 303 304 303 302 301 301 300 298 297 297 297 297 296 297 297 298 297 296 294 293 292 292 293 293 293 293 292 292 293 294 294 292 292 292 292 292 293 292 293 293 290
328 327 326 325 325 324 324 326 328 326 324 323 315 309 297 297 304 318 311 298 294 297 304 314 314 318 316 310 310 313 309 306 294 294 294 294 292 292 293 293 294 300 299 295 299 303 302 301 301 300 300 299 299 298 298 298 298 297 297 295 296 296 295 293 293 293 294 293 293 292 292 292 293 294 294 293 292 292 292 291 292 293 292 290 290
325 325 323 322 321 326 326 326 327 326 324 322 323 319 315 305 293 292 295 296 293 292 291 291 293 295 309 310 299 292 292 292 293 293 293 292 293 293 293 293 293 293 293 296 299 301 302 302 302 302 301 301 301 301 301 299 298 299 299 298 297 296 295 295 295 294 294 293 293 293 293 294 294 295 294 293 292 291 291 292 292 293 292 290 289
321 323 322 322 321 321 322 322 322 322 322 323 321 320 321 320 316 301 294 293 294 293 293 292 292 293 295 301 309 302 294 292 293 293 293 292 291 291 291 292 292 292 293 296 295 297 302 303 303 305 305 304 302 301 301 301 301 300 300 299 298 297 296 295 296 296 295 295 294 293 295 295 295 295 294 293 291 290 290 290 290 291 291 290 290
312 314 318 319 320 319 320 320 319 319 319 318 317 316 316 317 318 316 314 300 293 294 294 293 293 292 292 293 294 296 296 293 293 293 293 292 292 291 290 291 292 292 294 300 297 297 302 303 303 303 303 303 304 304 303 303 302 302 301 301 300 298 297 297 297 297 296 296 296 296 296 296 296 294 291 291 291 290 290 289 290 291 291 290 290
313 310 312 315 316 316 316 315 315 315 315 313 313 314 314 315 314 314 315 314 314 305 295 293 293 295 295 293 293 293 292 292 292 293 292 292 291 291 293 294 291 291 294 301 303 302 302 302 302 302 303 303 303 303 304 304 303 304 304 303 301 301 301 302 301 299 296 297 297 296 295 297 293 294 294 292 291 290 289 288 290 289 290 290 289
313 307 304 306 315 314 314 314 314 314 314 314 314 312 312 312 311 311 311 310 310 310 310 312 299 293 302 299 293 292 293 292 292 292 292 291 291 290 293 298 297 297 295 297 300 302 301 302 303 304 304 303 304 304 303 304 305 305 304 303 303 304 304 304 303 303 302 301 299 298 298 298 297 294 291 292 291 290 290 289 289 289 290 290 289
312 311 312 310 311 311 311 312 314 313 312 312 314 312 312 313 313 313 310 307 308 310 314 317 313 299 294 296 293 292 292 292 292 291 292 291 291 292 296 300 303 302 300 298 299 300 301 303 304 305 305 305 306 305 306 307 307 306 306 306 304 305 305 305 302 302 303 303 301 300 299 298 297 294 294 294 293 292 290 290 290 290 290 290 290
306 307 308 311 314 315 314 314 315 315 308 311 313 316 313 313 311 312 313 314 310 310 310 312 311 308 302 307 297 293 291 291 291 291 291 291 290 293 300 305 307 309 309 304 301 302 302 303 304 304 305 305 305 306 307 307 306 307 305 306 307 306 307 307 305 301 303 301 301 301 299 298 297 295 295 291 289 290 290 290 291 289 288 288 287
304 301 302 303 310 315 314 309 313 303 310 308 303 302 302 302 303 303 303 302 302 302 303 303 302 306 301 300 308 308 301 289 290 291 291 291 290 296 299 303 306 308 309 310 309 307 305 306 307 307 306 306 307 308 307 307 307 307 307 307 306 306 300 303 299 304 303 302 302 300 297 296 297 297 292 291 288 288 288 288 289 289 289 287 288
303 295 292 293 295 301 302 301 301 301 301 302 302 301 297 300 301 301 302 303 301 302 303 303 304 303 301 301 301 302 297 299 302 304 303 300 301 302 303 305 307 308 308 308 309 309 309 308 308 309 308 308 306 307 306 306 306 306 306 305 305 305 304 303 304 303 301 299 297 298 296 295 295 295 292 290 289 289 289 289 289 289 288 287 288
303 304 299 293 299 300 299 300 300 301 299 300 300 301 296 299 301 302 301 301 300 299 300 302 300 306 303 304 303 300 298 298 299 303 306 307 305 306 307 306 307 305 306 306 305 304 304 305 304 303 302 301 301 301 301 302 303 302 302 302 301 302 302 303 300 299 298 298 296 295 294 294 294 293 292 290 288 290 289 288 287 289 289 289 288
307 307 298 297 295 302 301 303 302 302 303 303 303 299 301 302 304 302 304 303 302 300 300 302 302 306 302 297 295 296 302 300 301 303 301 300 301 301 300 300 301 305 304 301 301 301 302 301 300 300 300 300 301 300 301 301 301 301 301 300 301 298 302 302 301 298 297 295 295 294 294 294 294 293 291 290 291 290 289 288 288 287 287 287 288
303 303 303 302 305 302 300 300 300 301 304 304 304 303 304 301 304 302 303 301 300 301 302 301 301 305 299 294 295 293 300 301 301 301 304 304 303 301 301 301 305 303 301 302 302 304 302 300 301 301 301 300 299 300 300 301 301 301 300 300 299 299 296 296 297 297 297 294 294 294 294 293 293 292 291 292 289 288 288 288 289 288 288 287 287
302 303 307 306 306 305 304 303 303 303 306 301 301 297 298 302 302 303 306 304 302 301 302 301 301 303 301 291 293 290 299 302 297 303 304 303 304 303 303 304 303 302 304 305 303 305 302 303 303 302 301 302 303 301 300 299 299 298 299 300 300 299 299 296 294 294 294 293 293 292 293 293 292 291 290 290 289 288 287 288 288 288 287 287 286
301 302 301 300 302 303 299 301 302 299 301 297 297 299 300 301 301 301 300 300 299 299 299 300 299 300 300 300 295 296 300 302 304 306 304 302 306 304 304 306 305 304 307 304 305 304 304 303 303 302 303 303 303 305 302 301 302 300 298 298 296 294 297 295 293 294 295 293 293 292 292 291 290 291 290 290 290 288 288 288 287 287 287 287 287
303 302 302 304 303 304 302 304 302 300 303 299 299 299 301 306 301 300 299 299 300 300 299 298 298 298 299 301 302 303 304 303 302 306 305 305 303 303 305 304 304 305 303 302 302 303 301 301 302 303 303 303 303 303 303 302 303 302 300 300 295 292 292 294 295 295 295 295 293 293 292 292 291 290 289 289 289 289 287 287 287 286 286 286 286
301 301 301 302 301 301 304 304 298 301 300 299 299 299 301 301 300 299 299 300 299 298 297 298 299 299 298 299 300 299 302 302 302 303 302 302 302 305 305 304 304 304 303 302 302 304 304 303 300 300 300 303 304 303 303 303 303 302 303 298 296 296 296 296 296 295 294 295 293 293 292 292 292 291 290 290 289 288 288 288 288 287 286 286 286
304 302 301 301 301 298 304 302 300 300 301 300 299 300 301 301 300 299 298 298 298 297 299 299 299 299 299 300 299 300 300 299 300 300 302 303 304 305 304 304 302 303 304 304 305 302 304 303 303 303 303 303 303 303 302 300 301 300 300 297 297 297 296 296 296 297 297 298 297 294 293 292 292 292 291 290 288 287 287 287 287 287 287 286 286
303 301 301 303 302 302 302 304 300 297 299 299 299 299 298 299 299 300 298 298 298 298 298 298 298 299 298 299 299 298 298 299 300 299 300 300 302 304 304 303 304 302 302 304 305 304 304 304 304 304 304 304 303 301 301 301 300 300 299 297 297 296 295 294 298 298 298 296 296 296 296 294 292 293 292 292 289 288 287 287 287 287 287 286 286
301 301 302 301 302 301 300 301 300 302 302 300 299 299 297 298 298 298 297 298 298 298 298 298 298 298 297 297 298 298 298 300 299 300 300 299 301 304 303 301 300 302 300 300 302 304 306 305 305 304 304 304 303 302 301 300 300 300 297 296 294 288 288 290 293 296 291 293 295 297 297 296 295 294 293 292 288 289 287 288 287 287 286 285 285
299 301 302 299 301 301 300 300 300 300 299 299 298 298 298 298 297 297 298 298 298 297 298 297 297 297 297 297 297 297 298 297 297 298 298 298 299 300 301 301 302 300 299 300 301 303 303 304 305 305 304 304 304 303 301 300 301 298 298 297 289 288 288 287 289 288 290 294 295 295 295 295 295 294 293 292 290 289 287 287 287 286 286 286 285
298 299 299 300 300 299 299 299 299 299 299 299 298 298 297 297 297 298 298 298 297 296 296 297 297 297 297 297 296 297 296 297 297 297 298 300 300 299 299 298 298 299 299 300 300 301 303 304 303 302 302 300 302 301 301 299 300 300 294 289 287 287 287 288 291 285 286 288 293 294 293 293 294 294 291 290 290 289 287 287 287 286 286 285 285
Wind_Speed
14 12 12 12 11 11 10 9 9 8 7 8 7 8 7 7 7 6 7 5 5 5 6 6 7 6 6 6 6 6 5 4 4 4 4 3 4 4 4 5 5 4 4 4 4 3 4 3 4 4 4 4 4 5 4 5 5 5 4 3 4 4 5 5 4 6 4 2 4 4 5 6 4 4 6 5 4 4 6 4 5 5 5 5 5
11 12 11 9 11 10 11 9 9 9 8 8 9 7 7 6 4 6 6 6 6 7 8 6 6 7 7 8 6 7 6 6 5 4 5 4 5 5 5 6 5 5 5 4 5 4 3 4 5 5 4 4 4 4 6 7 5 6 7 7 6 5 4 2 4 3 6 3 4 4 6 3 5 4 6 5 4 5 5 5 6 7 6 4 5
11 11 9 9 10 10 10 11 11 9 9 7 8 8 7 6 6 4 6 6 6 6 7 7 7 7 7 6 7 6 7 7 6 5 5 6 6 5 5 5 5 5 5 5 6 5 4 4 4 3 4 4 3 3 3 3 2 3 3 2 3 1 1 3 1 2 5 5 3 5 4 3 4 6 5 4 5 6 7 6 6 7 7 7 6
12 12 12 10 10 11 11 11 12 12 10 8 8 8 7 6 5 5 6 5 7 6 6 8 7 7 7 7 8 7 8 7 7 7 8 7 7 7 6 4 5 5 5 5 6 6 6 5 5 4 4 4 3 3 3 4 3 3 3 4 2 3 4 3 2 3 3 5 3 5 5 5 5 4 4 4 6 6 6 6 5 5 6 7 8
12 13 13 12 11 11 11 11 11 12 11 8 9 8 8 6 5 7 6 6 7 7 7 7 8 8 8 8 8 8 8 8 8 8 6 6 6 6 6 6 6 6 6 6 6 6 6 8 6 6 5 4 4 4 4 5 5 4 5 4 3 2 2 1 1 1 4 6 5 4 5 6 5 3 3 5 4 5 7 7 6 5 6 6 8
12 12 13 13 12 12 11 10 11 12 12 10 9 9 8 7 7 6 7 8 8 7 8 8 8 9 9 9 8 8 8 8 8 9 8 7 6 6 6 7 7 7 7 6 6 5 5 5 7 6 5 6 5 5 5 5 5 4 4 3 3 3 2 1 1 3 5 5 4 6 4 5 3 2 3 4 5 7 5 5 5 6 5 6 7
13 12 13 13 13 13 13 12 11 11 10 10 8 9 9 8 9 9 8 7 7 7 8 8 7 8 9 9 9 8 9 8 8 8 9 8 8 8 7 6 7 7 7 7 7 6 6 5 4 5 6 5 6 6 5 4 4 3 3 2 3 3 3 3 3 4 4 5 5 5 5 3 2 4 3 4 6 6 7 6 6 5 6 6 8
13 13 12 12 13 13 13 12 11 10 9 9 10 9 9 9 9 8 7 8 9 9 9 9 7 8 7 8 9 8 7 8 8 8 8 8 8 8 8 7 7 7 6 6 6 7 6 6 5 6 6 6 5 5 5 4 4 4 4 4 4 4 4 3 3 4 5 4 4 5 4 3 3 2 3 4 5 4 4 5 8 8 8 7 6
13 13 13 12 12 12 11 11 10 10 10 10 10 10 9 8 8 8 7 6 7 9 8 9 9 9 9 8 7 8 8 7 7 8 8 9 8 8 8 8 8 7 7 7 7 6 6 6 6 5 6 9 11 8 6 4 4 4 4 4 3 3 3 3 4 5 5 5 5 4 4 4 3 3 5 4 5 6 5 4 6 7 8 9 8
13 13 13 12 11 12 12 10 11 11 11 11 11 10 10 9 8 8 9 9 8 8 8 7 8 9 9 9 8 6 7 7 9 15 12 8 8 7 8 8 8 7 7 7 7 7 7 5 6 11 12 12 11 11 8 6 4 2 1 1 0 2 3 3 4 3 4 5 5 4 5 5 3 2 3 3 5 5 5 6 8 8 7 7 8
12 12 13 12 11 12 11 11 11 12 11 11 10 11 11 9 9 9 9 9 9 9 8 9 8 8 9 8 8 8 7 8 13 15 16 15 9 7 8 8 8 8 8 7 7 7 6 7 5 6 8 9 8 11 10 10 9 8 6 5 5 3 2 3 4 3 4 5 4 4 5 6 4 2 3 5 4 4 5 6 7 7 7 9 11
13 13 12 12 12 13 11 12 12 12 12 12 12 11 10 10 10 10 9 9 9 8 9 9 9 8 8 9 8 8 7 10 15 15 17 17 14 9 7 7 7 7 7 8 7 6 6 6 5 6 5 6 5 7 9 11 11 11 11 10 10 9 9 7 6 5 4 5 5 5 4 6 5 3 3 4 5 5 5 5 6 7 9 9 9
13 12 12 12 13 12 12 12 12 12 12 12 11 11 11 11 11 10 11 9 7 9 10 9 9 9 8 9 9 8 8 12 16 17 17 18 18 13 7 7 7 7 7 7 7 6 6 6 6 5 7 11 10 7 7 8 11 14 14 14 13 12 13 13 12 9 5 5 6 7 7 6 6 4 2 4 4 6 5 5 5 7 7 9 9
12 13 12 13 13 13 12 13 13 12 12 12 11 12 11 12 10 9 9 9 9 9 9 10 9 9 9 9 9 8 8 11 17 18 18 18 18 14 9 8 7 7 8 8 7 7 6 5 6 5 4 4 5 7 5 6 8 9 9 8 7 10 13 14 14 14 10 8 7 9 9 4 6 4 4 4 5 5 5 6 6 7 8 10 11
13 12 12 12 12 12 13 13 13 12 12 12 11 12 12 11 11 10 9 9 9 9 9 9 9 9 9 8 8 8 8 12 17 18 18 19 18 15 10 8 7 7 7 7 7 7 6 6 5 4 4 5 5 7 7 6 5 6 7 8 9 8 8 9 10 10 9 9 10 11 10 7 6 7 6 3 2 3 4 7 7 7 9 9 10
12 12 12 12 12 12 13 13 12 12 12 12 12 13 12 11 11 10 9 9 8 8 8 8 8 8 9 9 8 9 8 13 17 18 19 18 18 11 9 9 9 7 7 7 7 6 5 5 5 5 5 4 6 11 10 7 6 7 6 6 8 8 9 10 15 14 12 11 11 11 10 8 8 6 3 2 3 4 5 6 5 6 7 8 9
11 10 11 12 12 12 12 13 12 12 13 12 13 12 12 11 10 8 9 9 9 9 8 7 7 8 8 9 9 9 8 11 16 17 18 18 10 7 9 9 9 9 8 7 7 6 6 6 6 6 5 6 8 10 12 11 6 6 6 6 5 4 6 6 11 18 18 17 16 15 13 12 10 8 8 8 6 4 3 5 7 5 6 8 8
12 11 10 10 10 11 11 12 12 12 12 13 13 11 11 10 10 9 10 9 9 9 8 7 7 7 7 8 10 9 9 10 15 16 16 13 13 11 9 8 9 9 8 7 6 6 7 11 10 7 7 7 10 12 12 10 7 7 6 6 7 7 7 5 4 6 16 17 16 13 9 7 8 8 9 10 11 5 4 8 7 3 7 7 9
11 10 9 8 9 10 11 12 12 12 12 12 11 11 11 10 9 8 8 8 8 7 8 8 8 7 8 9 11 12 10 9 16 16 16 17 14 8 8 8 9 9 8 8 7 7 7 8 13 11 9 9 12 12 13 11 7 7 7 6 7 9 7 4 5 3 4 6 6 5 6 6 6 5 7 13 14 10 7 8 6 5 7 7 8
9 10 10 11 11 11 8 9 9 11 12 11 10 10 8 8 9 9 9 9 9 8 7 7 8 8 7 8 8 10 10 10 9 15 16 16 18 12 9 9 10 9 8 8 7 7 8 7 10 16 16 15 12 12 13 14 9 7 5 6 7 9 4 4 4 4 3 8 6 5 5 4 4 4 5 6 7 7 8 8 7 6 7 7 7
5 4 3 4 7 10 10 10 10 9 9 9 10 9 8 8 7 8 9 8 8 7 8 8 8 7 7 7 9 9 9 9 7 15 15 17 18 16 9 10 8 7 7 8 7 7 7 8 7 12 18 18 16 14 14 15 13 8 7 8 8 2 3 1 2 3 1 2 3 4 4 4 6 6 7 6 6 7 7 8 8 8 7 7 7
9 7 6 9 12 11 8 7 8 9 9 8 7 8 8 9 8 8 7 7 8 7 5 6 6 6 5 6 6 6 6 9 6 12 15 16 17 19 10 9 8 7 7 7 7 7 7 7 7 12 19 19 18 16 16 15 16 10 10 11 5 4 0 1 2 0 2 3 3 4 5 5 6 6 6 6 6 6 6 6 6 6 6 6 7
8 10 12 15 13 10 10 12 10 8 8 9 8 7 6 7 8 7 6 6 6 7 7 6 6 5 5 5 5 5 6 8 12 10 14 17 19 18 17 11 9 8 7 6 6 6 6 7 8 12 18 19 19 17 16 16 13 10 12 9 6 3 2 3 4 4 4 4 5 7 6 6 6 7 6 6 6 6 6 5 4 5 5 6 8
10 9 8 8 7 6 7 5 7 5 6 7 9 8 7 5 4 4 6 7 6 6 6 5 5 6 7 6 5 5 6 7 12 15 14 18 17 18 18 17 12 7 5 5 3 4 5 2 2 4 11 14 15 16 16 14 10 12 10 9 7 6 3 3 5 6 6 6 7 9 9 7 7 7 8 6 6 5 6 5 4 4 6 8 9
9 9 8 7 7 5 2 6 6 5 1 2 4 4 3 8 6 8 6 4 4 6 6 7 6 5 5 6 6 7 8 6 7 12 16 16 16 16 17 16 16 13 7 5 4 3 6 7 8 5 2 6 8 8 6 7 8 5 6 8 8 4 5 5 6 6 7 8 9 9 8 8 8 8 8 6 4 4 4 4 4 6 8 9 10
7 8 8 3 2 6 5 1 2 3 4 6 8 8 8 7 4 3 5 7 10 8 4 3 2 5 5 6 6 7 5 6 7 5 6 8 9 14 15 14 13 13 10 8 10 8 5 4 5 7 6 4 3 3 4 5 7 7 6 7 5 6 6 6 7 7 9 9 8 9 8 6 6 7 6 5 5 6 5 5 4 5 5 5 5
7 6 8 11 12 12 12 9 9 8 8 6 7 5 3 5 5 2 1 2 4 6 4 2 2 4 7 8 8 6 3 5 7 5 5 4 4 5 6 6 7 6 5 7 9 11 10 4 3 5 2 6 4 3 3 4 4 4 6 6 7 7 8 7 8 8 9 8 8 8 7 6 6 7 6 5 6 5 5 5 5 5 4 4 5
3 5 5 4 4 7 7 7 5 6 2 4 3 1 1 2 3 4 5 3 4 6 5 3 3 5 7 7 3 2 3 8 6 3 5 5 4 4 5 5 5 5 5 5 6 7 7 6 3 3 2 3 2 2 3 4 5 5 6 7 8 10 9 10 9 8 8 7 7 6 7 6 7 7 5 5 5 5 4 5 5 5 4 4 4
7 5 4 4 4 6 6 5 0 1 3 6 8 8 6 5 6 3 1 2 3 3 6 7 3 3 6 6 5 6 7 6 4 4 5 7 3 5 5 5 5 5 6 6 4 3 3 4 5 5 5 6 5 5 5 6 6 7 9 9 8 7 6 6 8 9 8 6 8 8 8 7 8 7 6 5 5 5 4 5 5 6 5 3 4
5 6 5 5 5 7 4 2 3 2 4 6 7 5 4 7 6 3 3 2 6 7 7 4 1 3 5 6 6 6 5 3 3 12 12 12 13 12 10 10 9 4 5 13 8 4 4 4 5 5 5 5 6 6 6 6 7 7 8 9 8 6 7 7 8 8 7 8 8 7 8 7 8 7 6 5 5 5 6 6 6 5 4 3 5
5 4 8 8 7 7 5 4 3 4 5 5 4 5 5 6 10 11 9 7 9 11 11 11 11 10 6 5 8 11 10 9 10 10 11 11 10 10 9 9 9 7 7 7 4 5 4 4 5 5 6 5 6 6 6 6 7 7 7 6 6 8 8 7 7 6 7 7 8 7 7 7 7 6 6 5 5 5 4 5 6 5 4 3 5
9 8 9 8 10 9 9 9 8 8 7 6 7 6 5 5 5 8 9 8 9 10 9 10 8 9 10 7 5 3 6 8 8 9 8 9 9 9 8 6 5 6 8 10 5 5 5 5 5 4 3 4 6 6 6 6 6 6 6 5 5 5 7 8 7 7 7 7 7 7 7 7 7 6 5 4 4 4 5 5 5 4 3 3 5
13 12 11 10 9 9 9 9 8 7 7 6 6 5 5 5 5 3 4 5 7 9 8 7 7 7 7 8 8 6 4 3 5 4 6 7 7 7 8 8 6 5 4 2 3 4 4 4 4 4 5 6 5 4 4 5 5 5 5 6 4 3 5 7 7 8 8 7 6 7 7 7 7 5 3 3 4 5 5 6 4 3 3 4 5
10 8 8 8 9 9 9 9 8 7 7 7 6 5 5 4 4 4 4 5 5 4 4 4 8 7 6 5 5 4 5 5 4 4 4 4 6 6 5 3 3 1 1 4 4 5 4 5 5 6 6 6 5 4 4 3 4 6 4 0 2 4 6 6 7 7 6 7 7 7 6 6 4 4 4 4 5 5 5 5 4 4 4 4 5
8 8 12 8 6 6 5 5 5 5 5 5 5 4 4 3 1 3 2 2 2 3 4 2 4 2 1 1 2 3 4 5 5 5 4 5 5 5 4 3 1 2 1 3 4 5 5 5 5 4 4 4 5 4 4 5 6 5 4 5 6 6 6 6 7 7 6 6 7 7 7 6 4 4 4 4 4 5 6 5 5 5 5 5 4
8 8 9 9 7 5 5 5 4 3 2 3 3 3 2 2 2 1 1 1 0 2 3 2 3 3 4 3 2 4 4 4 4 4 3 3 3 5 2 3 4 5 5 5 6 7 5 5 5 5 5 5 4 5 5 5 5 5 5 6 6 6 6 6 6 7 7 7 8 7 6 4 4 4 4 5 5 6 5 5 5 5 5 4 3
8 7 6 5 4 3 1 1 0 1 1 1 1 1 1 1 1 1 2 1 1 2 4 4 4 2 2 2 4 2 3 1 0 3 3 3 3 3 4 4 4 3 3 6 6 5 6 7 7 7 6 5 5 5 5 5 5 5 5 5 5 5 4 5 4 1 1 1 2 3 3 3 4 4 5 5 5 4 5 4 4 4 5 3 2
9 9 9 7 4 3 3 5 4 3 4 4 7 7 7 7 6 6 7 6 6 4 4 4 5 3 5 4 4 2 1 3 5 4 4 4 2 3 5 6 5 5 5 4 3 6 7 7 7 6 6 5 6 5 5 4 3 3 3 4 4 5 5 5 3 4 4 4 3 1 1 3 4 4 4 5 5 4 4 4 4 4 4 5 5
7 12 16 16 10 8 7 8 8 8 8 6 6 6 6 6 5 5 5 4 4 3 2 3 4 4 4 3 3 6 6 1 2 3 3 4 4 5 5 5 6 6 3 3 2 2 2 3 3 2 2 2 3 3 3 4 4 4 3 4 5 4 4 4 4 3 3 4 2 1 1 2 2 3 3 4 3 4 4 4 4 5 4 4 4
3 2 4 7 4 4 4 5 6 5 6 7 6 5 4 4 4 5 4 5 4 5 5 3 3 2 4 2 2 4 4 4 4 6 2 2 5 6 6 5 2 3 3 4 5 6 5 5 5 5 5 4 5 5 5 5 5 5 5 5 6 5 4 5 4 4 4 3 1 1 2 2 2 2 2 3 3 3 5 4 5 5 4 4 3
2 1 2 4 6 4 3 3 2 3 3 3 3 4 5 5 3 2 2 3 3 4 4 4 4 1 4 2 2 2 1 3 5 4 3 4 4 4 5 4 3 3 4 5 5 4 4 5 5 5 5 5 4 5 4 4 4 5 5 4 5 5 6 5 5 5 3 2 3 4 2 0 1 1 1 2 4 4 4 4 4 4 4 3 3
5 4 3 3 3 3 4 3 2 2 2 3 3 2 3 3 3 3 2 2 3 2 2 3 4 1 6 9 7 5 2 3 4 3 2 2 3 3 3 4 2 4 4 4 4 3 4 4 3 3 3 5 5 4 5 5 5 5 5 3 3 4 4 4 5 6 4 4 3 3 3 1 1 1 2 4 3 3 4 4 5 4 4 4 3
8 5 2 2 1 1 0 2 3 3 2 3 4 3 2 4 4 3 1 1 2 2 3 3 3 4 1 7 7 5 3 5 5 3 2 1 1 1 2 3 3 5 3 2 4 1 4 2 1 1 2 1 1 2 2 3 4 4 5 5 3 1 2 2 4 5 5 6 5 4 2 2 1 2 2 2 3 3 4 5 4 4 4 4 4
7 5 4 5 4 3 4 4 4 4 3 6 7 4 4 6 4 4 5 5 5 5 5 5 5 4 5 4 5 3 4 5 3 1 2 3 1 1 2 2 2 2 0 2 2 2 2 0 1 2 3 3 2 3 2 1 1 3 3 3 3 3 4 5 5 5 4 4 4 4 4 3 3 2 1 2 3 4 4 4 4 4 4 4 4
6 5 4 2 3 2 3 3 3 4 2 3 5 6 2 1 3 4 4 4 4 4 4 5 6 6 4 4 3 3 3 3 3 2 2 3 3 4 3 2 2 3 3 5 5 4 5 5 3 1 1 0 2 1 2 2 2 2 2 1 4 5 3 3 3 3 3 3 3 4 5 5 2 4 4 4 4 4 4 4 4 4 4 4 4
5 6 4 3 3 1 2 2 4 5 3 4 4 5 3 3 3 4 3 3 3 4 5 6 5 3 5 5 4 3 3 3 3 3 3 4 4 2 3 4 4 3 4 5 6 4 2 3 3 2 1 0 1 1 2 2 1 3 1 5 4 4 3 2 2 4 5 4 4 4 4 5 3 2 5 5 5 4 4 4 5 4 5 5 4
4 5 5 5 4 3 2 4 5 4 4 4 4 4 3 3 3 3 3 3 4 5 4 4 4 5 5 4 4 4 4 4 4 4 4 4 3 3 3 4 5 5 5 3 2 4 3 3 2 1 1 1 2 3 3 3 2 3 2 5 5 4 3 2 3 2 3 4 4 5 5 5 6 4 4 4 4 5 5 4 4 4 4 4 4
5 5 5 5 5 5 3 2 2 2 4 6 6 4 3 3 4 4 4 5 5 4 4 4 4 4 3 3 4 4 4 4 4 4 4 4 4 3 3 5 4 5 5 2 1 0 0 0 0 1 1 2 3 4 5 4 4 3 4 4 3 3 4 3 1 1 2 3 3 4 5 5 6 5 3 2 4 4 4 4 3 3 3 5 5
6 5 5 5 6 7 7 5 3 2 1 3 4 5 5 5 5 5 5 5 5 5 4 4 5 6 5 5 5 4 4 4 4 4 4 4 4 4 3 5 6 5 4 5 4 3 2 1 1 1 1 1 2 3 3 4 3 4 6 4 6 8 8 6 4 2 1 2 3 3 4 4 5 4 3 1 4 3 4 3 3 4 4 3 3
7 6 6 6 5 6 7 7 7 6 5 5 5 6 5 5 5 6 6 5 5 5 5 6 7 7 6 6 6 6 6 6 6 5 5 6 6 7 6 4 4 7 7 6 5 3 3 3 1 1 1 0 1 3 4 6 1 5 4 6 9 9 9 8 7 5 2 1 2 3 3 4 4 4 3 2 3 3 2 3 3 4 3 4 5
6 5 6 6 6 5 6 6 6 6 6 6 5 5 6 6 7 6 5 5 6 7 7 7 7 7 7 7 7 8 8 8 8 8 6 4 4 5 7 8 8 7 6 6 6 5 4 3 3 3 2 2 3 3 3 4 4 3 6 10 10 9 10 8 5 7 6 2 2 4 3 4 4 4 1 1 3 1 2 2 2 3 3 3 3
Wind_Direction
179 190 192 198 193 186 196 202 204 209 209 185 199 199 211 214 197 183 157 184 178 181 191 197 184 185 191 183 185 181 182 185 188 177 179 186 184 207 190 195 221 205 202 191 219 210 202 218 207 209 173 200 208 193 214 227 194 203 229 243 211 203 189 208 243 277 277 287 298 291 303 292 296 338 309 298 304 320 317 320 340 339 317 300 314
188 190 190 189 184 190 191 193 205 208 214 193 196 201 208 217 213 166 165 176 187 192 195 205 189 188 198 186 194 180 186 185 181 196 180 196 189 205 208 194 219 208 194 200 206 213 216 222 226 191 183 204 227 236 200 215 220 193 208 210 204 207 188 219 249 264 291 295 290 295 282 304 307 310 294 307 322 322 330 343 336 323 314 322 335
189 186 192 192 188 190 192 190 198 210 210 213 194 198 212 212 205 168 169 179 192 203 196 203 200 191 203 193 189 190 186 184 182 190 194 199 198 201 208 202 205 221 198 202 213 200 208 214 246 226 169 206 232 258 298 302 289 277 276 231 220 187 222 237 215 268 280 284 292 294 295 304 294 288 299 339 332 326 327 333 330 323 327 332 329
190 185 189 198 190 191 195 190 195 201 213 211 204 196 205 211 201 192 191 182 193 202 208 200 200 196 203 202 191 192 189 185 181 195 198 202 202 197 205 206 210 223 229 207 215 213 193 204 211 232 188 190 219 229 246 239 235 267 288 293 276 234 221 187 198 236 260 290 287 286 296 297 278 291 326 335 323 323 320 316 316 320 328 331 330
194 187 190 194 196 195 197 194 193 198 207 206 206 203 205 206 201 204 188 193 207 198 205 219 199 195 204 208 200 193 193 191 188 193 202 204 203 202 198 203 208 217 223 226 224 223 204 190 204 207 208 201 204 217 220 230 228 213 224 243 266 286 266 201 248 279 281 276 280 272 281 275 280 307 347 322 324 321 310 307 319 328 330 337 321
192 190 187 190 195 198 199 198 197 198 200 206 199 202 207 210 204 211 203 198 205 204 203 211 219 203 203 210 210 198 196 196 193 191 200 201 206 208 206 203 207 210 216 222 231 232 233 207 193 202 205 201 207 208 217 232 228 223 229 239 243 252 253 253 253 254 253 259 271 287 273 280 306 331 327 328 325 306 299 309 328 325 325 322 319
191 192 187 190 193 198 199 200 199 199 200 200 200 200 205 206 212 211 206 210 207 212 206 208 212 224 208 201 209 205 196 195 198 194 198 202 200 207 212 210 208 210 215 216 216 228 228 227 220 203 210 207 203 207 216 225 234 245 254 260 266 266 266 250 250 266 268 273 270 268 282 284 330 319 325 334 307 312 320 323 314 318 318 321 317
191 192 188 189 195 195 200 199 199 200 198 198 201 206 206 206 206 214 205 203 210 215 214 212 211 214 226 209 201 204 200 192 197 199 200 203 197 203 208 210 213 215 218 222 219 213 217 222 214 215 212 211 206 209 206 214 201 217 215 219 225 232 234 238 250 256 267 272 275 283 281 293 318 309 333 328 311 310 323 324 317 324 321 316 308
190 193 191 193 193 194 195 199 199 199 199 198 203 205 210 211 204 206 211 211 211 222 218 210 210 215 220 228 218 195 202 203 198 199 201 205 202 201 207 209 209 217 215 215 223 229 221 214 219 218 212 209 214 210 212 191 203 209 218 214 226 232 241 237 241 254 257 264 281 285 293 306 301 330 324 315 316 312 315 333 315 312 315 312 310
193 194 195 194 192 192 193 196 198 198 198 201 204 206 208 211 211 208 206 212 215 215 229 221 212 214 218 217 223 216 198 204 200 194 197 202 205 206 204 210 208 209 215 218 215 218 225 228 223 222 225 222 213 210 168 159 185 201 197 162 280 323 301 285 263 270 282 280 273 284 295 284 288 308 299 300 308 309 324 331 315 314 311 303 300
194 196 196 195 193 194 194 195 199 200 199 203 203 205 209 209 211 214 213 209 212 215 217 226 220 217 220 220 213 216 211 201 197 191 197 201 203 207 204 205 209 208 208 212 219 215 214 221 225 230 223 217 204 185 179 189 194 211 221 215 204 198 246 273 275 267 272 274 272 275 267 280 286 311 296 307 304 314 322 318 310 317 325 326 317
193 195 199 194 194 196 197 196 199 202 200 203 205 208 209 209 210 212 214 211 209 211 214 219 222 221 221 224 217 212 215 201 186 192 197 201 205 207 206 206 206 211 212 214 212 213 217 213 210 218 214 198 194 183 195 199 204 212 220 226 229 228 220 221 239 255 252 266 274 266 275 269 288 291 289 298 298 311 306 310 314 324 321 314 305
190 196 199 197 197 197 196 200 200 203 204 203 204 207 210 213 213 210 214 213 210 213 217 217 219 217 218 223 223 213 215 194 186 192 198 202 206 208 213 208 210 210 211 216 216 212 204 207 215 214 231 204 197 192 190 206 213 217 222 227 230 228 230 229 228 232 240 253 257 268 255 270 274 265 272 289 298 296 312 312 318 313 306 299 294
190 197 199 202 199 195 198 201 204 204 203 204 204 205 208 213 213 213 210 210 213 217 215 216 219 219 217 220 221 221 222 190 188 194 200 202 205 204 217 215 216 217 214 213 213 215 214 207 206 217 213 207 184 195 199 196 199 218 228 231 230 231 230 229 230 231 229 232 243 253 256 234 252 262 273 278 285 299 316 302 306 302 296 289 293
190 197 200 205 204 198 200 202 205 205 202 204 206 208 209 209 210 209 209 211 213 213 214 216 217 220 218 218 222 222 228 193 191 197 201 202 204 201 214 218 225 225 221 219 213 207 210 215 218 217 209 205 193 187 196 209 215 207 207 219 222 224 225 226 225 222 218 224 231 240 247 241 249 257 254 254 302 299 297 291 291 286 283 286 281
196 192 199 203 209 206 202 205 205 206 207 204 206 209 210 211 209 205 207 211 215 216 211 207 212 218 215 216 220 225 223 193 196 200 200 203 200 199 209 220 226 231 226 221 219 213 209 209 215 220 221 223 216 203 202 198 204 223 228 215 211 219 227 225 216 209 210 212 219 227 230 225 228 233 234 264 279 285 290 292 294 286 290 292 292
201 196 199 200 208 210 207 208 206 206 208 209 209 208 209 209 211 202 206 209 210 212 213 201 203 213 214 214 223 225 226 200 197 200 201 201 177 196 212 219 225 227 230 221 220 218 214 212 212 215 217 223 222 208 206 200 219 223 231 243 244 234 228 232 206 203 207 210 214 220 221 218 217 233 253 247 239 245 283 290 277 278 288 292 292
200 209 213 205 204 210 213 213 213 209 210 212 211 210 207 207 210 202 207 209 211 213 209 206 201 195 206 226 219 223 227 202 196 200 197 178 182 194 206 213 224 227 229 225 221 222 220 214 212 217 219 219 216 205 198 198 216 222 233 247 254 255 254 244 247 210 210 208 213 217 217 223 233 246 255 266 267 240 198 249 260 276 276 279 284
198 201 210 210 207 214 218 215 215 212 213 215 213 211 206 206 203 198 203 210 216 213 208 209 208 194 191 214 224 220 222 207 199 195 180 186 186 200 203 212 221 225 222 223 216 221 224 220 217 214 219 221 216 197 196 193 211 220 227 238 249 251 247 235 243 209 189 214 232 231 245 232 239 251 258 256 253 240 216 233 250 244 267 273 284
199 208 212 216 216 217 214 221 219 214 213 214 214 215 209 204 201 198 204 211 213 215 207 209 210 201 200 210 220 218 218 221 190 185 189 184 185 194 206 207 219 218 216 218 214 212 219 223 216 212 216 222 207 188 193 194 205 217 210 228 241 249 245 242 244 261 198 198 213 216 231 228 231 239 244 243 241 238 227 224 226 233 247 265 282
223 174 224 235 238 221 215 218 225 220 216 212 210 212 210 213 206 201 205 208 213 207 198 213 217 206 202 209 222 218 215 217 175 177 188 189 192 194 207 213 217 217 214 214 216 219 215 215 224 200 209 218 213 192 188 200 206 211 213 223 231 210 57 355 343 74 127 172 210 220 235 239 243 245 241 233 237 237 233 218 216 220 239 262 275
179 168 199 234 237 232 224 227 230 222 216 215 214 211 208 209 211 208 207 207 209 207 191 189 199 206 204 211 211 208 194 200 204 186 185 188 191 201 209 214 210 217 222 215 211 220 224 221 217 197 201 211 215 203 197 198 207 211 223 225 219 111 328 25 329 329 203 216 235 243 246 249 253 252 236 221 222 229 234 230 216 223 229 238 251
181 183 198 213 222 220 217 215 218 223 215 210 215 220 213 208 205 207 205 206 205 206 196 196 196 201 220 232 223 200 200 207 197 163 182 188 193 201 213 220 220 225 235 227 215 222 221 225 228 207 196 207 210 205 199 202 203 217 222 225 237 176 165 248 246 250 244 238 237 250 250 250 261 261 252 235 229 229 237 231 226 224 241 250 255
201 210 201 208 218 239 260 238 208 199 229 216 209 212 218 218 213 211 209 204 208 198 194 181 198 217 232 236 225 226 226 220 183 173 177 190 192 197 209 222 235 242 258 258 246 240 267 311 3 147 192 202 205 203 203 201 208 215 215 225 238 248 248 251 250 245 250 250 249 253 254 249 253 257 252 235 224 224 233 236 233 240 253 259 258
214 220 220 217 211 192 29 296 267 247 258 307 299 260 118 66 44 324 310 283 230 213 205 198 202 217 218 225 229 228 220 199 159 172 176 186 190 196 205 213 228 241 267 277 292 38 58 44 28 40 146 194 203 209 216 220 229 228 213 222 231 240 235 236 242 244 244 243 246 251 253 247 243 250 250 224 210 214 235 248 241 241 245 251 252
223 224 220 221 64 75 116 118 3 31 50 64 64 33 358 3 10 337 11 348 319 307 328 12 311 272 281 251 238 242 210 152 140 138 158 169 191 201 202 208 222 234 243 269 291 294 311 37 50 55 70 73 109 151 197 207 207 213 221 217 222 226 225 229 233 234 243 245 249 250 251 252 249 256 243 205 207 224 220 239 248 255 255 268 277
269 292 22 45 50 42 24 350 349 353 17 21 40 54 139 194 211 224 177 179 255 268 282 310 306 282 260 247 232 217 186 132 125 123 145 155 181 180 198 215 219 235 251 250 257 264 277 235 172 189 139 154 161 142 175 138 154 188 216 221 224 226 224 223 228 235 242 247 252 254 256 253 257 260 235 199 218 222 203 232 245 258 261 264 276
122 94 105 138 140 144 155 203 225 282 63 79 98 198 5 54 66 16 311 318 250 249 242 232 273 281 259 259 271 194 94 56 52 96 154 164 163 165 176 183 187 186 208 226 236 258 261 266 226 173 160 161 188 206 210 204 207 203 214 219 226 229 227 230 238 241 246 245 255 259 262 255 256 256 235 215 225 223 207 227 235 254 251 263 271
94 129 117 77 66 63 54 45 50 226 63 68 60 46 15 26 93 120 357 88 78 35 11 23 359 347 37 21 14 47 67 58 28 352 72 64 105 175 177 187 189 196 206 203 220 224 231 244 252 258 247 243 240 230 222 217 221 222 228 233 232 224 218 220 230 238 240 241 245 245 253 255 256 254 239 228 224 224 211 228 236 241 247 241 271
25 39 39 64 81 80 72 352 322 19 81 107 102 83 49 67 68 130 143 41 52 88 122 142 101 12 53 35 21 64 77 119 114 72 74 76 72 74 78 76 75 63 186 187 179 207 202 205 213 221 223 220 229 231 230 223 228 230 233 235 234 224 214 215 226 234 233 234 242 246 251 252 257 249 238 224 233 228 223 219 236 225 234 252 265
331 25 44 39 54 108 122 127 106 78 68 72 80 116 126 50 57 68 73 75 68 59 61 63 52 41 58 101 58 69 90 78 65 72 86 92 93 89 88 93 97 104 134 137 171 204 227 229 219 205 211 218 221 224 217 222 227 235 238 224 209 216 219 223 222 220 227 234 236 240 244 243 246 240 235 226 226 230 230 227 224 218 223 247 264
20 28 36 35 34 36 58 60 63 64 53 50 51 38 26 71 79 50 54 70 79 76 73 67 61 63 55 75 111 89 61 63 72 72 69 80 97 105 101 108 114 125 156 154 165 199 219 231 243 247 235 226 222 220 226 232 236 235 238 239 223 199 212 228 227 226 235 235 237 240 242 244 242 237 220 219 218 231 229 234 223 216 228 241 262
37 25 16 16 18 24 36 47 49 55 68 78 76 56 51 49 53 64 67 30 54 62 53 61 79 81 68 54 55 68 82 99 101 96 91 96 99 117 135 134 142 152 115 175 190 198 228 244 250 248 245 260 265 255 234 227 234 232 220 235 232 196 214 229 223 228 231 229 234 241 239 240 233 217 211 206 204 230 229 234 225 223 230 255 262
38 35 30 27 33 28 27 30 32 36 45 55 62 63 56 52 58 30 24 23 18 46 81 63 44 25 33 74 97 112 123 134 150 149 162 153 139 141 125 113 110 196 271 205 200 219 224 229 237 244 252 260 269 277 281 293 299 282 276 177 200 232 234 224 216 220 219 220 223 235 239 242 207 191 211 214 218 221 229 225 214 217 235 247 257
29 32 29 25 40 41 41 48 55 55 59 54 55 63 65 65 72 71 61 53 37 6 336 343 73 58 252 293 179 139 149 155 169 184 182 166 162 156 120 112 152 211 225 229 228 226 231 232 243 246 245 252 250 244 243 241 240 233 214 220 234 238 245 234 225 221 221 216 214 220 220 221 208 191 199 215 216 220 225 222 211 209 222 237 253
28 26 23 19 21 25 29 27 32 51 74 117 126 134 184 161 147 145 137 133 84 283 254 202 137 205 268 311 154 170 170 179 175 176 172 153 158 139 161 226 234 212 201 204 212 223 224 231 235 235 230 232 236 239 234 238 238 239 232 228 233 234 234 243 231 221 222 221 216 204 197 201 195 188 207 225 228 225 220 217 214 211 221 235 261
24 21 16 357 344 341 337 220 108 9 8 256 258 178 206 210 211 213 201 171 15 1 0 78 115 120 252 174 136 40 39 3 93 70 104 128 166 211 264 281 280 282 217 197 204 210 210 220 219 225 226 226 234 242 247 242 244 247 251 247 246 250 259 268 259 242 253 264 202 174 191 207 184 193 211 230 224 225 225 226 222 215 215 226 251
18 15 10 355 341 343 344 12 9 321 326 9 23 19 18 13 21 20 30 35 30 17 15 3 353 53 60 39 152 183 133 76 97 111 111 96 134 222 237 258 264 255 265 250 181 187 206 218 217 222 228 229 232 244 255 259 257 263 271 274 268 258 271 276 274 273 272 271 252 220 206 211 197 200 210 223 205 207 225 228 228 227 215 221 225
14 9 10 11 17 15 12 11 13 18 17 16 23 18 19 10 13 9 16 25 18 1 341 7 346 64 81 49 17 346 356 329 291 265 179 188 191 211 230 243 246 249 268 280 269 268 325 346 14 31 10 360 340 343 345 334 326 316 312 316 311 317 319 316 312 326 304 257 221 221 249 272 230 221 215 190 192 198 221 232 230 222 220 215 212
68 54 20 5 355 3 25 22 16 11 20 12 7 8 10 10 11 12 10 4 16 1 349 9 349 52 99 82 14 347 351 332 311 312 320 163 191 212 223 241 302 349 355 11 16 14 11 12 19 17 12 356 358 354 358 352 348 343 341 337 340 337 333 334 329 341 358 6 342 245 206 218 251 250 173 152 190 203 221 233 229 223 219 204 219
163 259 334 356 355 342 29 19 38 22 10 13 11 3 354 344 349 357 7 335 8 353 335 325 309 21 105 125 210 161 300 319 310 306 346 351 359 351 356 1 317 318 20 22 19 7 12 26 21 8 358 359 2 359 347 345 336 335 331 337 343 343 346 344 356 1 4 1 342 324 292 176 253 221 205 200 190 207 222 229 227 216 209 206 201
6 356 8 338 355 17 354 27 353 27 17 3 357 17 329 326 317 326 344 334 343 326 340 324 305 41 161 168 201 191 188 294 290 295 307 346 345 335 347 303 3 56 40 18 353 349 48 39 10 352 1 17 1 344 351 341 343 334 323 339 3 354 347 341 346 335 331 331 306 286 261 214 231 219 187 195 202 200 221 224 222 206 203 200 211
332 304 275 255 297 322 359 308 338 346 341 1 334 336 304 289 294 289 274 316 315 322 331 319 318 347 180 208 229 203 232 252 256 272 337 8 294 263 294 328 44 59 46 350 298 62 77 57 334 20 58 319 318 13 354 331 334 333 333 326 323 292 280 302 336 344 349 344 327 322 296 206 206 213 205 204 198 197 216 224 219 208 210 202 203
311 306 353 345 343 12 355 325 26 342 27 356 319 283 289 295 324 350 1 360 350 341 334 340 349 340 320 243 226 237 248 252 287 323 342 284 232 91 266 313 68 104 99 275 261 117 124 144 229 217 207 213 208 208 192 196 218 274 291 309 311 333 7 16 20 18 18 1 325 319 314 270 193 186 200 227 201 203 215 221 210 217 213 213 206
331 350 333 332 320 344 347 320 14 327 33 21 339 320 269 297 352 348 348 337 324 331 340 341 315 295 273 276 271 262 278 297 287 298 317 321 305 259 191 164 199 194 206 228 220 200 209 194 215 262 146 19 300 324 339 316 242 238 248 3 52 60 49 32 6 339 350 343 333 321 307 299 213 188 210 218 223 192 196 207 210 215 222 221 217
329 316 304 314 307 356 309 347 7 327 0 346 315 295 321 358 349 324 305 307 340 337 311 281 288 320 331 323 319 310 315 315 312 286 262 255 265 314 359 344 309 262 229 226 210 224 204 163 189 182 208 247 297 333 263 263 305 305 10 93 120 105 89 50 12 11 351 341 334 326 312 306 284 202 203 213 197 163 178 204 206 213 214 222 222
313 309 321 322 339 325 340 16 341 326 330 321 306 311 339 333 307 303 309 335 324 298 297 320 332 321 314 311 317 319 328 325 322 326 320 323 316 279 282 266 256 262 261 261 206 213 199 181 156 104 84 218 212 242 250 236 209 242 141 116 105 99 82 60 40 9 5 354 339 325 311 306 294 283 256 217 168 167 183 200 202 205 204 206 224
320 315 305 317 318 315 320 323 281 316 331 319 310 316 324 331 323 328 332 320 307 313 319 312 297 297 312 323 324 317 308 308 308 295 293 283 283 296 270 264 294 306 281 266 282 284 163 193 147 173 218 239 239 236 240 248 246 238 104 111 108 113 122 115 91 52 45 357 314 295 294 292 288 293 290 179 176 159 173 198 196 189 196 199 214
307 307 307 299 283 283 282 272 246 231 274 298 314 331 334 329 328 326 316 315 313 313 316 319 331 334 325 318 313 307 301 298 306 315 310 307 303 294 317 326 316 297 302 309 315 320 344 351 271 226 233 234 300 301 288 273 252 109 126 139 143 144 140 141 129 110 103 277 273 290 295 301 300 295 306 155 173 164 170 186 182 186 180 190 240
308 305 298 303 306 326 324 331 345 358 354 335 325 312 318 323 320 307 299 300 316 329 336 336 320 306 300 306 319 326 329 320 313 314 323 320 313 305 301 307 327 334 326 321 314 315 311 297 272 248 239 267 315 320 307 294 276 150 153 147 163 163 162 155 148 143 158 254 287 287 288 291 294 302 327 351 145 158 163 184 180 171 179 201 212
298 319 333 332 334 333 334 335 337 328 321 310 310 320 322 311 302 303 319 341 343 334 320 313 317 324 324 321 320 319 312 307 297 288 288 300 317 332 330 324 317 310 305 302 301 298 294 300 281 252 236 230 260 257 276 281 303 151 161 161 174 182 170 164 146 149 153 198 251 269 273 275 288 302 353 54 87 134 167 164 153 167 185 208 221